New Philadelphia, OH

9:20 AM EDT on August 29, 2016 (GMT -0400)
Clever

Weather History for KPHD - March, 2012

Change the Weather History Date:

Wednesday, March 28, 2012

  Actual Average Record
Temperature  
Mean Temperature 62 °F 44 °F  
Max Temperature 76 °F 56 °F 82 °F (1989)
Min Temperature 47 °F 33 °F 11 °F (1982)
Degree Days  
Heating Degree Days 3 21  
Month to date heating degree days 375 719  
Since 1 July heating degree days 2533 4926  
Cooling Degree Days 0 0  
Month to date cooling degree days 13 0  
Year to date cooling degree days 13 0  
Growing Degree Days 12 (Base 50)    
Moisture  
Dew Point 36 °F    
Average Humidity 38    
Maximum Humidity 55    
Minimum Humidity 21    
Precipitation  
Precipitation 0.01 in 0.10 in 0.57 in (2005)
Month to date precipitation 2.25 2.73  
Year to date precipitation 6.62 7.69  
Sea Level Pressure  
Sea Level Pressure 29.85 in    
Wind  
Wind Speed 10 mph (West)    
Max Wind Speed 25 mph    
Max Gust Speed 39 mph    
Visibility 10 miles    
Events Rain , Thunderstorm    
T = Trace of Precipitation, MM = Missing Value Source: NWS Daily Summary

Daily Weather History Graph

Daily Weather History Graph

Search for Another Location

Airport or City:

Trip Planner

Search our weather history database for the weather conditions in past years. The results will help you decide how hot, cold, wet, or windy it might be!

Date:

Astronomy

Mar. 28, 2012 Rise Set
Actual Time 7:15 AM EDT 7:46 PM EDT
Civil Twilight 6:47 AM EDT 8:14 PM EDT
Nautical Twilight 6:15 AM EDT 8:46 PM EDT
Astronomical Twilight 5:42 AM EDT 9:19 PM EDT
Moon 10:29 AM EDT (3/28) 12:48 AM EDT (3/28)
Length of Visible Light 13h 26m
Length of Day
12h 31m
Waxing Crescent, 30% of the Moon is Illuminated
Mar 28
Waxing Crescent
Mar 30
First Quarter
Apr 6
Full
Apr 13
Last Quarter
Apr 21
New

Hourly Weather History & Observations

Time (EDT) Temp. Dew Point Humidity Pressure Visibility Wind Dir Wind Speed Gust Speed Precip Events Conditions
12:53 AM 48.9 °F 23.0 °F 36% 30.01 in 10.0 mi ESE 4.6 mph - N/A   Clear
1:53 AM 48.9 °F 24.1 °F 38% 29.99 in 10.0 mi ESE 4.6 mph - N/A   Clear
2:53 AM 51.1 °F 23.0 °F 33% 29.96 in 10.0 mi Calm Calm - N/A   Clear
3:53 AM 55.0 °F 19.9 °F 25% 29.93 in 10.0 mi Variable 5.8 mph - N/A   Clear
4:53 AM 55.9 °F 21.9 °F 27% 29.89 in 10.0 mi SW 4.6 mph - N/A   Clear
5:53 AM 57.0 °F 24.1 °F 28% 29.87 in 10.0 mi SW 9.2 mph - N/A   Clear
6:53 AM 57.9 °F 28.0 °F 32% 29.86 in 10.0 mi SSW 6.9 mph - N/A   Mostly Cloudy
7:53 AM 57.9 °F 32.0 °F 37% 29.86 in 10.0 mi Variable 3.5 mph - N/A   Overcast
8:53 AM 60.1 °F 37.0 °F 42% 29.86 in 10.0 mi Variable 6.9 mph 18.4 mph N/A   Overcast
9:20 AM 59.0 °F 41.0 °F 51% 29.85 in 10.0 mi Variable 6.9 mph 16.1 mph 0.00 in Rain , Thunderstorm Light Rain
9:30 AM 59.0 °F 41.0 °F 51% 29.85 in 10.0 mi WSW 8.1 mph - 0.00 in Thunderstorm Thunderstorm
9:53 AM 60.1 °F 43.0 °F 53% 29.84 in 10.0 mi Variable 6.9 mph - 0.00 in Thunderstorm Overcast
10:01 AM 60.8 °F 42.8 °F 52% 29.83 in 10.0 mi Variable 5.8 mph - N/A   Overcast
10:10 AM 60.8 °F 44.6 °F 55% 29.84 in 9.0 mi WSW 9.2 mph - 0.01 in Rain , Thunderstorm Light Thunderstorms and Rain
10:41 AM 60.8 °F 46.4 °F 59% 29.84 in 10.0 mi SW 4.6 mph - 0.01 in   Overcast
10:53 AM 61.0 °F 48.0 °F 62% 29.83 in 10.0 mi SW 6.9 mph - 0.01 in   Mostly Cloudy
11:53 AM 68.0 °F 51.1 °F 55% 29.81 in 10.0 mi WSW 8.1 mph 16.1 mph N/A   Mostly Cloudy
12:53 PM 71.1 °F 50.0 °F 47% 29.79 in 10.0 mi West 16.1 mph 23.0 mph N/A   Scattered Clouds
1:53 PM 73.9 °F 48.9 °F 41% 29.76 in 10.0 mi West 17.3 mph 29.9 mph N/A   Clear
2:53 PM 75.0 °F 46.9 °F 37% 29.74 in 10.0 mi West 17.3 mph 27.6 mph N/A   Mostly Cloudy
3:53 PM 75.9 °F 37.9 °F 25% 29.73 in 10.0 mi West 20.7 mph 35.7 mph N/A   Partly Cloudy
4:53 PM 75.0 °F 34.0 °F 22% 29.73 in 10.0 mi West 10.4 mph 31.1 mph N/A   Clear
5:53 PM 72.0 °F 30.9 °F 22% 29.75 in 10.0 mi West 19.6 mph 34.5 mph N/A   Clear
6:53 PM 69.1 °F 32.0 °F 25% 29.77 in 10.0 mi WNW 18.4 mph 25.3 mph N/A   Clear
7:53 PM 66.0 °F 32.0 °F 28% 29.80 in 10.0 mi WNW 10.4 mph 21.9 mph N/A   Partly Cloudy
8:53 PM 63.0 °F 39.9 °F 43% 29.84 in 10.0 mi NNW 15.0 mph 24.2 mph N/A   Overcast
9:53 PM 57.0 °F 37.9 °F 49% 29.88 in 10.0 mi North 12.7 mph 20.7 mph N/A   Scattered Clouds
10:53 PM 53.1 °F 37.0 °F 55% 29.91 in 10.0 mi NNW 11.5 mph - N/A   Partly Cloudy
11:53 PM 51.1 °F 36.0 °F 56% 29.92 in 10.0 mi NW 11.5 mph 17.3 mph N/A   Clear